437  
SXUS52 KTAE 230019  
OSOTAE  
OSOTAE  
NORTH FLORIDA/SOUTH ALABAMA/SOUTHWEST GEORGIA WEATHER ROUNDUP  
NATIONAL WEATHER SERVICE TALLAHASSEE FLORIDA  
800 PM EDT TUE AUG 22 2017  
 
NOTE: "FAIR" INDICATES FEW OR NO CLOUDS BELOW 12,000 FEET WITH NO  
SIGNIFICANT WEATHER AND/OR OBSTRUCTIONS TO VISIBILITY.  
 
!FLZ017-115-028-034-025-230100   
..NORTH FLORIDA
 
 
 
CITY SKY/WX TMP DP RH WIND PRES REMARKS  
TALLAHASSEE MOCLDY 85 75 72 SW3 30.00F HX 93  
APALACHICOLA CLEAR 84 79 85 E3 30.00F HX 96  
PERRY PTCLDY 83 79 88 CALM 30.02S HX 94  
CROSS CITY PTCLDY 84 77 78 W7 30.05S HX 93  
JACKSONVILLE PTCLDY 85 73 67 E7 30.00S HX 91  

 
 
!FLZ112-006-005-002-011-230100   
..FLORIDA PANHANDLE
 
 
 
CITY SKY/WX TMP DP RH WIND PRES REMARKS  
MARIANNA PTCLDY 83 74 74 S7 29.99F  
BONIFAY NOT AVBL  
PANAMA CITY NW FAIR 85 75 72 SW5 29.99S HX 93  
TYNDALL AFB PTCLDY 85 76 74 S3 30.00F HX 94  
TYND DRONE APT FAIR 83 77 80 S3 30.00F HX 92  
DE FUNIAK SPR FAIR 81 76 84 SW3 30.02S  
EGLIN AFB MOCLDY 84 75 74 W2 30.00F HX 92  
DESTIN MOCLDY 88 75 65 CALM 30.00F HX 97  
HURLBURT CLEAR 83 72 67 CALM 29.99F  
CRESTVIEW MOCLDY 82 75 79 SW3 30.02F  
PENSACOLA CLOUDY 84 75 74 CALM 30.01F HX 92  

 
 
!ALZ063-066-230100   
..SOUTH ALABAMA
 
 
 
CITY SKY/WX TMP DP RH WIND PRES REMARKS  
DOTHAN CLEAR 88 72 58 SW6 30.02F HX 94  
OZARK CAIRNS PTCLDY 84 76 75 S5 29.99F HX 93  
FT RUCKER HELI CLEAR 83 78 83 SW5 29.99S HX 93  
RUCKER HELI 3 FAIR 85 74 70 W5 29.99F HX 92  
RUCKER HELI 2 FAIR 85 74 71 SW5 29.98F HX 92  
FLORALA APT N/A N/A N/A N/A MISG 30.03S  
ANDALUSIA MOCLDY 86 75 69 SW3 30.00F HX 95  
TROY CLEAR 83 76 79 CALM 30.01S HX 91  
EUFALA FAIR 85 79 82 CALM 29.98F HX 98  
MOBILE MOCLDY 83 75 77 CALM 30.03R HX 90  

 
 
!GAZ120>161-230100   
..SOUTHWEST AND SOUTH CENTRAL GEORGIA
 
 
 
CITY SKY/WX TMP DP RH WIND PRES REMARKS  
THOMASVILLE FAIR 82 82 100 CALM 30.01F HX 97  
BAINBRIDGE PTCLDY 84 79 84 SW6 30.00F HX 96  
MOODY AFB CLEAR 87 72 61 SW7 30.00S HX 93  
VALDOSTA MOCLDY 80 75 84 CALM 30.00F  
MOULTRIE CLOUDY 84 73 70 CALM 30.01F HX 91  
BLAKELY CLOUDY 88 72 58 S6 30.00S HX 94  
ALBANY CLEAR 86 75 69 S5 30.02S HX 95  
TIFTON FAIR 82 74 77 CALM 30.01S  
FITZGERALD FAIR 85 78 78 CALM 30.03F HX 96  
CORDELE FAIR 87 79 78 CALM 30.01F HX 101  
AMERICUS FAIR 82 73 74 CALM 30.02F  
HOMERVILLE CLOUDY 82 73 74 CALM 30.01S  

 
 
!GMZ750-755-770-775-230100   
..COASTAL AND BUOY OBS
 
 
 
STATION/POSITION TIME TEMP WIND PRES VSBY WAVE  
AIR SEA DIR/SP/G HT/PER  
(UTC) (F) (DEG/KT/KT) (MB) (MI) (FT/S)  
KEATON BEACH 0000 85 290/ 5/ 6 1015.7F  
CEDAR KEY 0000 86 340/ 5/ 8 1016.1F  
C TOWER 0000 84 1016.3F  
APALACHICOLA BUO 2350 85 87 60/ 8/ 8 1015.8F 2/ 6  
PANAMA CITY BUOY 2350 85 87 110/ 6/ 8 1015.4F 2/ 4  
MOBILE BUOY 0000 84 88 40/ 4/ 6 1015.9  
ORANGE BCH AL BU 2350 84 87 70/ 2/ 4 1015.6F 2/ 6  

 
 
 
CLICK HERE TO GO TO PREVIOUS BULLETINS.

The Nexlab FL Page
The Nexlab GA Page
The Nexlab AL Page Main Text Page